Torna al catalogo

SL-14 DEB

AttivoPO
NORAD 45327·DEBRIS·🇷🇺 Russia

Lanciato Aug 15, 1991 da Plesetsk Cosmodrome

Loading…

Prossimi Passaggi (prossime 24 ore)

TLE

AggiornatoSource: Space-Track

Epoca: Sep 14, 2026, 14:00 UTC

1 45327U 91056BR  26257.58379294  .00001194  00000-0  21050-2 0  9996
2 45327  82.5656  16.7127 0073809 344.9859  14.9085 13.41005410321516

Traccia SL-14 DEB in tempo reale con AllMySat

Download on the App Store